Regional Weather Roundup
Issued by NWS

Home | Current Version | Previous Version | Graphics & Text | Print | Product List | Glossary Off
Versions: 1 2 3 4 5 6 7 8 9 10 11 12 13 14 15 16 17 18 19 20 21 22 23 24 25 26 27 28 29 30 31 32 33 34 35 36 37 38 39 40 41 42 43 44 45 46 47 48 49 50

022
ASUS43 KLSX 222207
RWRMO

WEATHER SUMMARY FOR MISSOURI
NATIONAL WEATHER SERVICE SPRINGFIELD MO
400 PM CST WED NOV 22 2017

NOTE: "FAIR" INDICATES FEW OR NO CLOUDS BELOW 12,000 FEET WITH NO
       SIGNIFICANT WEATHER AND/OR OBSTRUCTIONS TO VISIBILITY.
       CURRENT SKY AND/OR WEATHER CONDITIONS ARE NOT AVAILABLE FOR
       CHILLICOTHE AND FARMINGTON.

MOZ001>031-035>038-043-044-053-054-222300-
...NORTHERN AND WESTERN MISSOURI...

CITY           SKY/WX    TMP DP  RH WIND       PRES   REMARKS
KANSAS CTY INT CLOUDY    40  15  36 S9        30.23F
KANSAS C DTWN  CLEAR     44  16  32 SW9       30.25F
LEE`S SUMMIT   CLEAR     41  16  36 S13       30.24F
ST JOSEPH      CLOUDY    41  15  35 S8        30.25R
CHILLICOTHE      N/A     40  12  32 S6        30.27F
KIRKSVILLE     PTCLDY    38  12  34 SW8       30.26F

$$
MOZ066>068-077>081-088>096-101>105-222300-
...SOUTHWEST MISSOURI...

CITY           SKY/WX    TMP DP  RH WIND       PRES   REMARKS
SPRINGFIELD    CLEAR     45  13  27 SW3       30.27S
JOPLIN         SUNNY     45  23  42 CALM      30.29F
BRANSON        CLEAR     45  16  31 CALM      30.27F

$$
MOZ032>034-039>042-045>050-055>058-069>072-222300-
...CENTRAL MISSOURI...

CITY           SKY/WX    TMP DP  RH WIND       PRES   REMARKS
COLUMBIA       CLEAR     41  13  31 SW3       30.29R
JEFFERSON CITY CLEAR     42  14  32 CALM      30.30S
ROLLA          CLEAR     42  14  32 N3        30.28S
SEDALIA        CLEAR     42  17  36 S6        30.28F
WHITEMAN AFB   PTCLDY    40  15  35 SW6       30.23F
WARRENSBURG    CLEAR     41  16  36 SW5       30.28F
OSAGE BEACH    CLEAR     43  10  26 CALM      30.30S

$$
MOZ051-052-059>065-222300-
...EAST CENTRAL MISSOURI...

CITY           SKY/WX    TMP DP  RH WIND       PRES   REMARKS
ST LOUIS INTL  MOCLDY    38  18  44 N3        30.30F
SPIRIT OF STL  CLEAR     40  17  39 CALM      30.30F
ST CHARLES     CLEAR     40  15  36 CALM      30.31S

$$
MOZ072>076-082>087-097>100-106>115-222300-
...SOUTH CENTRAL AND SOUTHEAST MISSOURI...

CITY           SKY/WX    TMP DP  RH WIND       PRES   REMARKS
CAPE GIRARDEAU CLEAR     41  20  43 NE9       30.29R
FARMINGTON     CLEAR     40  16  37 NE7       30.29S
POPLAR BLUFF   CLEAR     46  19  34 NE3       30.29R
WEST PLAINS    CLEAR     47  12  24 CALM      30.27S

$$



USA.gov is the U.S. government's official web portal to all federal, state and local government web resources and services.